Location: Newark
(13.8192°N, 100.4391°E)
Time: 20:44:27
(UTC+00:00)

Hubble Space Telescope - Visible Passes

Search period start: 15 December 2019 00:00
Search period end: 25 December 2019 00:00
Orbit: 536 x 540 km, 28.5° (Epoch: 14 December)

Date Brightness Start Highest point End Pass type
(mag) Time Alt. Az. Time Alt. Az. Time Alt. Az.
15 Dec 2.6 22:33:04 15° NNW 22:33:39 16° NNW 22:36:10 10° NNE visible
16 Dec 2.9 22:23:22 14° N 22:23:22 14° N 22:25:19 10° NNE visible
17 Dec 3.1 22:13:34 12° N 22:13:34 12° N 22:14:27 10° NNE visible
21 Dec 2.8 23:10:34 10° NNW 23:13:15 16° NNE 23:15:55 10° NE visible
22 Dec 2.7 22:59:44 10° NNW 23:02:46 19° NNE 23:05:49 10° ENE visible
23 Dec 2.4 22:49:17 12° NNW 22:52:17 23° NNE 22:55:38 10° ENE visible
24 Dec 2.1 22:39:20 17° NNW 22:41:46 29° NNE 22:45:23 10° E visible
